DateTimeUTC,F1_A11,F1_S11,BsB_S11,BsG_S11,BsR_S11,BbsB_S11,BbsG_S11,BbsR_S11,BaB_A11,BaG_A11,BaR_A11,Tu_S11,T_S11,Uu_S11,U_S11,P_S11,T1_A11
2021-05-27T05:00:00Z,00000200,20000000,,,,,,,0000.20,0000.67,0000.29,17.5,24.2,10.6,07.0,0678.9,30.9
2021-05-27T05:01:00Z,00000200,20000000,,,,,,,0000.38,-000.25,-000.02,17.5,24.2,10.6,07.0,0678.9,30.9
2021-05-27T05:02:00Z,00000200,20000000,,,,,,,0000.11,0000.01,0000.08,17.5,24.2,10.6,07.0,0678.9,30.9
2021-05-27T05:03:00Z,00000200,60000000,,,,,,,0000.01,0000.14,0000.15,17.5,24.2,10.6,07.0,0678.9,30.9
2021-05-27T05:04:00Z,00000200,40000000,0000.32,-000.00,-000.06,0000.00,0000.01,0000.07,0000.30,0000.56,0000.13,17.6,24.0,10.7,07.2,0679.9,30.9
2021-05-27T05:05:00Z,00000200,00000000,0000.46,0000.07,0000.02,0000.13,0000.11,-000.06,-000.12,-000.37,-000.41,17.6,24.0,10.6,07.2,0680.0,30.9
2021-05-27T05:06:00Z,00000200,00000000,0000.13,0000.14,0000.26,-000.02,0000.25,-000.09,0000.11,-000.13,-000.10,17.6,24.0,10.6,07.2,0680.0,30.9
2021-05-27T05:07:00Z,00000200,00000000,0000.43,-000.17,0000.29,0000.11,0000.15,0000.56,-000.18,-000.03,0000.01,17.6,24.0,10.6,07.2,0680.0,30.9
2021-05-27T05:08:00Z,00000200,00000000,0000.57,0000.26,-000.21,0000.27,-000.02,-000.11,-000.42,-000.57,-000.02,17.6,23.9,10.5,07.1,0680.0,30.9
2021-05-27T05:09:00Z,00000200,00000000,-000.13,0000.00,0000.27,0000.56,0000.06,0000.35,0000.46,0000.79,0000.17,17.6,24.0,10.6,07.2,0680.0,30.9
2021-05-27T05:10:00Z,00000200,00000000,0000.74,0000.50,-000.26,-000.73,0000.07,-000.07,0000.02,-000.06,0000.16,17.6,23.9,10.6,07.2,0680.0,30.9
2021-05-27T05:11:00Z,00000200,00000000,0000.34,0000.15,0000.08,-000.20,0000.08,0000.06,-000.24,0000.04,0000.28,17.6,23.9,10.7,07.2,0680.0,30.9
2021-05-27T05:12:00Z,00000200,00000000,0000.36,0000.12,-000.39,0000.26,0000.19,0000.08,0000.59,0000.16,-000.04,17.6,23.9,10.8,07.3,0680.0,30.9
2021-05-27T05:13:00Z,00000200,00000000,-000.56,0000.39,-000.21,0000.38,0000.27,-000.03,-000.43,-000.26,0000.01,17.6,23.9,10.6,07.2,0680.0,30.9
2021-05-27T05:14:00Z,00000200,00000000,0000.27,0000.16,-000.07,0000.34,0000.02,-000.18,0000.42,0000.51,-000.06,17.6,23.9,10.6,07.2,0680.0,30.9
2021-05-27T05:15:00Z,00000200,00000000,0000.43,0000.25,-000.20,-000.01,0000.23,-000.11,-000.27,-000.23,0000.03,17.6,23.9,10.7,07.3,0680.0,30.9
2021-05-27T05:16:00Z,00000200,00000000,0000.19,0000.32,0000.12,-000.18,-000.10,0000.09,0000.21,0000.26,-000.11,17.6,23.9,10.8,07.3,0680.0,30.9
2021-05-27T05:17:00Z,00000200,00000000,0000.44,0000.07,-000.05,-000.14,0000.22,0000.20,0000.06,0000.15,0000.57,17.6,23.9,10.8,07.3,0679.9,30.9
2021-05-27T05:18:00Z,00000200,00000000,0000.65,-000.16,0000.05,0000.04,0000.18,0000.06,0000.25,0000.12,-000.08,17.7,23.9,10.9,07.4,0680.0,30.9
2021-05-27T05:19:00Z,00000200,00000000,0000.02,0000.20,-000.14,0000.11,0000.06,0000.15,0000.04,-000.32,-000.11,17.7,23.9,10.9,07.4,0679.9,30.9
2021-05-27T05:20:00Z,00000200,00000000,-000.28,0000.18,-000.04,0000.46,0000.29,-000.02,-000.18,0000.33,-000.24,17.7,23.9,10.9,07.4,0679.9,30.9
2021-05-27T05:21:00Z,00000200,00000000,-000.38,0000.25,-000.08,-000.39,0000.12,-000.01,-000.04,-000.54,0000.55,17.7,23.9,11.0,07.5,0680.0,30.9
2021-05-27T05:22:00Z,00000200,00000000,0000.26,-000.23,-000.02,0000.13,0000.15,0000.23,0000.35,0000.27,-000.14,17.7,23.9,10.8,07.4,0680.0,30.9
2021-05-27T05:23:00Z,00000200,00000000,-000.24,-000.05,-000.04,0000.09,0000.24,0000.18,0000.21,0000.38,-000.04,17.7,23.9,11.0,07.5,0680.0,30.9
2021-05-27T05:24:00Z,00000200,00000000,0000.28,0000.33,0000.17,-000.05,0000.30,0000.31,-000.30,-000.06,0000.15,17.7,23.9,10.9,07.5,0680.0,30.9
2021-05-27T05:25:00Z,00000200,00000000,0000.17,0000.30,-000.10,-000.04,0000.29,0000.05,0000.37,0000.37,0000.34,17.7,23.9,11.0,07.5,0680.0,30.9
2021-05-27T05:26:00Z,00000200,00000000,-000.07,0000.19,-000.05,-000.07,-000.06,-000.00,0000.05,-000.17,0000.03,17.7,23.9,11.0,07.5,0680.0,30.9
2021-05-27T05:27:00Z,00000200,00000000,0000.65,0000.24,0000.04,-000.53,0000.35,0000.21,0000.06,0000.15,0000.19,17.7,23.9,11.1,07.6,0680.0,30.9
2021-05-27T05:28:00Z,00000200,00000000,0000.09,0000.06,0000.01,0000.18,0000.02,-000.02,0000.07,0000.14,0000.08,17.7,23.9,11.0,07.5,0680.0,30.9
2021-05-27T05:29:00Z,00000200,00000000,0000.18,-000.18,-000.01,-000.06,0000.26,0000.09,-000.21,-000.21,-000.23,17.7,23.9,11.0,07.5,0680.0,30.9
2021-05-27T05:30:00Z,00000200,00000000,0000.13,-000.27,0000.02,-000.77,0000.21,0000.16,0000.32,-000.21,0000.04,17.7,23.9,11.0,07.5,0680.0,30.9
2021-05-27T05:31:00Z,00000200,00000000,-000.13,-000.07,-000.11,0000.12,0000.16,0000.23,0000.10,0000.54,0000.07,17.7,23.9,11.1,07.5,0680.0,30.9
2021-05-27T05:32:00Z,00000200,00000000,0000.42,0000.08,-000.48,0000.24,0000.20,0000.07,-000.02,0000.21,0000.10,17.7,23.9,11.1,07.6,0680.1,30.9
2021-05-27T05:33:00Z,00000200,00000000,0000.26,0000.04,-000.15,-000.18,0000.25,0000.09,0000.05,-000.32,0000.12,17.7,23.9,11.0,07.5,0680.1,30.9
2021-05-27T05:34:00Z,00000200,00000000,-000.02,0000.02,-000.07,0000.36,0000.20,0000.19,-000.11,0000.13,0000.00,17.6,23.9,11.1,07.6,0680.1,30.9
2021-05-27T05:35:00Z,00000200,00000000,-000.11,0000.18,-000.10,-000.05,0000.17,0000.01,-000.01,-000.08,-000.23,17.7,23.9,11.1,07.5,0680.1,30.9
2021-05-27T05:36:00Z,00000200,00000000,0000.08,-000.02,-000.07,-000.09,0000.09,0000.01,0000.16,0000.15,0000.32,17.7,23.9,11.0,07.5,0680.1,30.9
2021-05-27T05:37:00Z,00000200,00000000,-000.06,0000.04,-000.24,-000.22,0000.21,-000.13,0000.08,0000.07,0000.08,17.7,23.9,11.1,07.6,0680.1,30.9
2021-05-27T05:38:00Z,00000200,00000000,-000.05,0000.17,0000.07,-000.47,-000.00,-000.07,-000.13,0000.17,-000.14,17.7,23.9,11.1,07.6,0680.1,30.9
2021-05-27T05:39:00Z,00000200,00000000,-000.47,0000.11,-000.08,0000.41,0000.32,-000.09,0000.31,0000.19,0000.11,17.7,23.9,11.1,07.5,0680.0,30.9
2021-05-27T05:40:00Z,00000200,00000000,-000.26,0000.01,0000.13,0000.26,0000.15,-000.04,0000.10,0000.19,0000.02,17.7,23.9,11.0,07.5,0680.1,30.9
2021-05-27T05:41:00Z,00000200,00000000,0000.16,0000.12,0000.13,-000.19,0000.06,0000.15,-000.16,-000.17,-000.15,17.6,23.9,11.1,07.6,0680.0,30.9
2021-05-27T05:42:00Z,00000200,00000000,0000.08,-000.05,0000.06,-000.17,0000.35,0000.04,0000.01,-000.03,0000.57,17.6,23.9,11.0,07.5,0680.0,30.9
2021-05-27T05:43:00Z,00000200,00000000,0000.00,0000.20,-000.10,0000.58,0000.05,0000.30,-000.10,-000.13,-000.58,17.6,23.9,11.0,07.5,0680.0,30.9
2021-05-27T05:44:00Z,00000200,00000000,-000.66,0000.07,-000.20,-000.21,0000.09,0000.10,0000.08,-000.01,0000.23,17.6,23.8,11.1,07.6,0680.1,30.9
2021-05-27T05:45:00Z,00000200,00000000,0000.25,0000.05,-000.15,-000.22,0000.47,0000.05,0000.28,0000.16,-000.25,17.7,23.8,11.0,07.5,0680.0,30.9
2021-05-27T05:46:00Z,00000200,00000000,0000.08,-000.07,0000.07,-000.30,0000.25,0000.27,-000.35,-000.39,0000.11,17.7,23.9,11.1,07.6,0680.0,30.9
2021-05-27T05:47:00Z,00000200,00000000,0000.37,-000.14,-000.17,-000.34,0000.14,0000.02,0000.18,0000.59,0000.21,17.6,23.8,11.1,07.6,0680.0,30.9
2021-05-27T05:48:00Z,00000200,00000000,-000.15,0000.02,0000.00,-000.03,0000.16,-000.06,0000.01,-000.22,-000.05,17.7,23.8,11.1,07.6,0680.0,30.9
2021-05-27T05:49:00Z,00000200,00000000,0000.18,0000.10,0000.19,0000.18,0000.21,-000.01,0000.23,-000.12,0000.24,17.6,23.8,11.2,07.6,0680.0,30.9
2021-05-27T05:50:00Z,00000200,00000000,0000.16,0000.11,-000.15,-000.32,0000.18,0000.07,-000.10,0000.39,0000.04,17.6,23.8,11.1,07.6,0679.9,30.9
2021-05-27T05:51:00Z,00000200,00000000,-000.13,-000.22,0000.19,0000.15,0000.11,0000.22,-000.01,-000.34,-000.14,17.6,23.8,11.1,07.6,0680.0,30.9
2021-05-27T05:52:00Z,00000200,00000000,-000.09,0000.27,-000.14,-000.63,0000.20,-000.24,0000.17,0000.16,0000.07,17.6,23.8,11.1,07.6,0680.0,30.9
2021-05-27T05:53:00Z,00000200,00000000,-000.95,-000.11,0000.02,0000.02,0000.29,0000.15,0000.15,-000.03,0000.39,17.6,23.8,11.1,07.6,0680.0,30.9
2021-05-27T05:54:00Z,00000200,00000000,0000.16,0000.36,-000.10,-000.38,0000.33,0000.30,-000.07,0000.35,-000.36,17.6,23.8,11.1,07.6,0680.0,30.9
2021-05-27T05:55:00Z,00000200,00000000,0000.52,0000.19,0000.24,0000.72,0000.23,0000.26,0000.16,-000.10,0000.30,17.6,23.8,11.1,07.6,0680.0,30.9
2021-05-27T05:56:00Z,00000200,00000000,0001.03,0000.10,0000.00,-000.32,0000.15,0000.19,-000.00,-000.10,0000.01,17.6,23.8,11.1,07.6,0680.0,30.9
2021-05-27T05:57:00Z,00000200,40000000,,,,,,,-000.09,0000.02,-000.09,17.7,23.8,11.4,07.8,0679.9,30.9
2021-05-27T05:58:00Z,00000200,60000000,,,,,,,-000.48,0000.03,-000.55,17.4,23.9,11.1,07.4,0679.0,30.9
2021-05-27T05:59:00Z,00000200,20000000,,,,,,,0000.50,0000.43,0000.41,17.4,24.0,11.2,07.4,0678.9,30.9
